Time,TemperatureF,DewpointF,PressureIn,WindDirection,WindDirectionDegrees,WindSpeedMPH,WindSpeedGustMPH,Humidity,HourlyPrecipIn,Conditions,Clouds,dailyrainin,SoftwareType,DateUTC
2013-09-05 06:55:00,41.2,39.3,30.01,NE,45,0.0,0.0,93,0.00,,,0.00,Weather View 32 v70,2013-09-05 14:55:00,
2013-09-05 07:00:00,41.2,39.3,30.01,NE,45,0.0,0.0,93,0.00,,,0.00,Weather View 32 v70,2013-09-05 15:00:00,
2013-09-05 07:05:00,41.4,39.5,30.03,NNE,22,0.0,0.0,93,0.00,,,0.00,Weather View 32 v70,2013-09-05 15:05:00,
2013-09-05 07:10:00,41.4,39.5,30.03,NNE,22,0.0,0.0,93,0.00,,,0.00,Weather View 32 v70,2013-09-05 15:10:00,
2013-09-05 07:15:00,41.4,39.5,30.03,North,0,0.0,0.0,93,0.00,,,0.00,Weather View 32 v70,2013-09-05 15:15:00,
2013-09-05 07:20:00,41.5,39.7,30.03,North,0,0.0,0.0,93,0.00,,,0.00,Weather View 32 v70,2013-09-05 15:20:00,
2013-09-05 07:25:00,41.5,39.7,30.03,NNE,22,0.0,0.0,93,0.00,,,0.00,Weather View 32 v70,2013-09-05 15:25:00,
2013-09-05 07:30:00,41.5,39.7,30.03,NNE,22,0.0,0.0,93,0.00,,,0.00,Weather View 32 v70,2013-09-05 15:30:00,
2013-09-05 07:35:00,41.5,39.7,30.03,NNE,22,0.0,0.0,93,0.00,,,0.00,Weather View 32 v70,2013-09-05 15:35:00,
2013-09-05 07:40:00,41.9,40.0,30.03,South,180,0.0,0.0,93,0.00,,,0.00,Weather View 32 v70,2013-09-05 15:40:00,
2013-09-05 07:45:00,41.9,40.0,30.03,SSE,158,0.0,0.0,93,0.00,,,0.00,Weather View 32 v70,2013-09-05 15:45:00,
2013-09-05 07:50:00,41.7,39.8,30.03,ESE,112,0.0,0.0,93,0.00,,,0.00,Weather View 32 v70,2013-09-05 15:50:00,
2013-09-05 07:55:00,41.9,40.0,30.03,SW,225,0.0,0.0,93,0.00,,,0.00,Weather View 32 v70,2013-09-05 15:55:00,
2013-09-05 08:00:00,41.9,40.0,30.03,NW,315,0.0,0.0,93,0.00,,,0.00,Weather View 32 v70,2013-09-05 16:00:00,
2013-09-05 08:05:00,42.1,40.2,30.09,South,180,0.0,0.0,93,0.00,,,0.00,Weather View 32 v70,2013-09-05 16:05:00,
2013-09-05 08:10:00,42.1,40.2,30.09,SSE,158,0.0,0.0,93,0.00,,,0.00,Weather View 32 v70,2013-09-05 16:10:00,
2013-09-05 08:15:00,42.6,40.7,30.09,SE,135,0.0,0.0,93,0.00,,,0.00,Weather View 32 v70,2013-09-05 16:15:00,
2013-09-05 08:20:00,42.6,40.7,30.09,NE,45,0.0,0.0,93,0.00,,,0.00,Weather View 32 v70,2013-09-05 16:20:00,
2013-09-05 08:25:00,42.6,40.7,30.12,ENE,68,0.0,0.0,93,0.00,,,0.00,Weather View 32 v70,2013-09-05 16:25:00,
2013-09-05 08:30:00,42.8,40.9,30.12,WSW,248,0.0,0.0,93,0.00,,,0.00,Weather View 32 v70,2013-09-05 16:30:00,
2013-09-05 08:35:00,43.0,41.1,30.12,NNW,338,0.0,0.0,93,0.00,,,0.00,Weather View 32 v70,2013-09-05 16:35:00,
2013-09-05 08:40:00,43.0,41.1,30.12,NNW,338,0.0,0.0,93,0.00,,,0.00,Weather View 32 v70,2013-09-05 16:40:00,
2013-09-05 08:45:00,43.2,41.3,30.12,NE,45,0.0,0.0,93,0.00,,,0.00,Weather View 32 v70,2013-09-05 16:45:00,
2013-09-05 08:50:00,43.3,41.4,30.12,SSE,158,0.0,0.0,93,0.00,,,0.00,Weather View 32 v70,2013-09-05 16:50:00,
2013-09-05 08:55:00,43.7,41.5,30.12,NW,315,0.0,0.0,92,0.00,,,0.00,Weather View 32 v70,2013-09-05 16:55:00,
2013-09-05 09:00:00,43.7,41.5,30.12,NE,45,0.0,0.0,92,0.00,,,0.00,Weather View 32 v70,2013-09-05 17:00:00,
2013-09-05 09:05:00,44.1,41.9,30.13,West,270,0.0,0.0,92,0.00,,,0.00,Weather View 32 v70,2013-09-05 17:05:00,
2013-09-05 09:10:00,44.2,42.1,30.13,West,270,0.0,0.0,92,0.00,,,0.00,Weather View 32 v70,2013-09-05 17:10:00,
2013-09-05 09:15:00,44.2,42.1,30.13,West,270,0.0,0.0,92,0.00,,,0.00,Weather View 32 v70,2013-09-05 17:15:00,
2013-09-05 09:20:00,44.6,42.4,30.13,West,270,0.0,0.0,92,0.00,,,0.00,Weather View 32 v70,2013-09-05 17:20:00,
2013-09-05 09:25:00,44.8,42.9,30.15,ESE,112,0.0,0.0,93,0.00,,,0.00,Weather View 32 v70,2013-09-05 17:25:00,
2013-09-05 09:30:00,44.8,42.9,30.15,South,180,0.0,0.0,93,0.00,,,0.00,Weather View 32 v70,2013-09-05 17:30:00,
2013-09-05 09:35:00,45.1,43.2,30.15,South,180,0.0,0.0,93,0.00,,,0.00,Weather View 32 v70,2013-09-05 17:35:00,
2013-09-05 09:40:00,45.5,43.3,30.15,NNW,338,0.0,0.0,92,0.00,,,0.00,Weather View 32 v70,2013-09-05 17:40:00,
2013-09-05 09:45:00,45.5,43.3,30.16,WSW,248,0.0,0.0,92,0.00,,,0.00,Weather View 32 v70,2013-09-05 17:45:00,
2013-09-05 09:50:00,45.5,43.3,30.16,NNW,338,0.0,0.0,92,0.00,,,0.00,Weather View 32 v70,2013-09-05 17:50:00,
2013-09-05 09:55:00,45.9,43.7,30.16,North,0,0.0,0.0,92,0.00,,,0.00,Weather View 32 v70,2013-09-05 17:55:00,
2013-09-05 10:00:00,45.7,43.5,30.16,NE,45,0.0,0.0,92,0.00,,,0.00,Weather View 32 v70,2013-09-05 18:00:00,
2013-09-05 10:05:00,46.0,43.8,30.16,ENE,68,0.0,0.0,92,0.00,,,0.00,Weather View 32 v70,2013-09-05 18:05:00,
2013-09-05 10:10:00,46.2,44.0,30.17,NNE,22,0.0,0.0,92,0.00,,,0.00,Weather View 32 v70,2013-09-05 18:10:00,
2013-09-05 10:15:00,46.4,44.2,30.17,NNW,338,0.0,0.0,92,0.00,,,0.00,Weather View 32 v70,2013-09-05 18:15:00,
2013-09-05 10:20:00,46.6,44.4,30.17,ESE,112,0.0,0.0,92,0.00,,,0.00,Weather View 32 v70,2013-09-05 18:20:00,
2013-09-05 10:25:00,46.9,44.7,30.17,ESE,112,0.0,0.0,92,0.00,,,0.00,Weather View 32 v70,2013-09-05 18:25:00,
2013-09-05 10:30:00,46.9,44.7,30.17,ENE,68,0.0,0.0,92,0.00,,,0.00,Weather View 32 v70,2013-09-05 18:30:00,
2013-09-05 10:35:00,47.1,44.9,30.17,NNE,22,0.0,0.0,92,0.03,,,0.03,Weather View 32 v70,2013-09-05 18:35:00,
2013-09-05 10:40:00,47.1,44.9,30.17,NNE,22,0.0,0.0,92,0.03,,,0.03,Weather View 32 v70,2013-09-05 18:40:00,
2013-09-05 10:45:00,47.3,45.1,30.17,NE,45,1.0,1.0,92,0.03,,,0.03,Weather View 32 v70,2013-09-05 18:45:00,
2013-09-05 10:50:00,47.1,44.6,30.17,NNW,338,1.0,1.0,91,0.03,,,0.03,Weather View 32 v70,2013-09-05 18:50:00,
2013-09-05 10:55:00,47.3,45.1,30.17,NNE,22,1.0,1.0,92,0.03,,,0.03,Weather View 32 v70,2013-09-05 18:55:00,
2013-09-05 11:00:00,47.7,45.4,30.17,North,0,1.0,1.0,92,0.03,,,0.03,Weather View 32 v70,2013-09-05 19:00:00,
2013-09-05 11:05:00,47.7,45.4,30.18,NNE,22,1.0,1.0,92,0.03,,,0.03,Weather View 32 v70,2013-09-05 19:05:00,
2013-09-05 11:10:00,48.0,45.8,30.18,NE,45,1.0,1.0,92,0.03,,,0.03,Weather View 32 v70,2013-09-05 19:10:00,
2013-09-05 11:15:00,48.0,45.8,30.18,NE,45,1.0,1.0,92,0.03,,,0.03,Weather View 32 v70,2013-09-05 19:15:00,
2013-09-05 11:20:00,48.4,46.2,30.18,NNE,22,1.0,1.0,92,0.03,,,0.03,Weather View 32 v70,2013-09-05 19:20:00,
2013-09-05 11:25:00,48.6,46.3,30.17,North,0,1.0,1.0,92,0.03,,,0.03,Weather View 32 v70,2013-09-05 19:25:00,
2013-09-05 11:30:00,48.7,46.5,30.17,NNE,22,1.0,1.0,92,0.03,,,0.03,Weather View 32 v70,2013-09-05 19:30:00,
2013-09-05 11:35:00,49.3,47.0,30.17,NNW,338,0.0,1.0,92,0.00,,,0.03,Weather View 32 v70,2013-09-05 19:35:00,
2013-09-05 11:40:00,49.5,47.2,30.17,NNW,338,0.0,1.0,92,0.00,,,0.03,Weather View 32 v70,2013-09-05 19:40:00,
2013-09-05 11:45:00,49.6,47.4,30.18,NE,45,0.0,1.0,92,0.00,,,0.03,Weather View 32 v70,2013-09-05 19:45:00,
2013-09-05 11:50:00,50.0,47.8,30.18,NNE,22,0.0,1.0,92,0.00,,,0.03,Weather View 32 v70,2013-09-05 19:50:00,
2013-09-05 11:55:00,50.2,47.6,30.18,NNE,22,1.0,1.0,91,0.00,,,0.03,Weather View 32 v70,2013-09-05 19:55:00,
2013-09-05 12:00:00,50.4,47.8,30.18,ENE,68,1.0,1.0,91,0.00,,,0.03,Weather View 32 v70,2013-09-05 20:00:00,
2013-09-05 12:05:00,50.9,48.4,30.18,NNE,22,1.0,1.0,91,0.00,,,0.03,Weather View 32 v70,2013-09-05 20:05:00,
2013-09-05 12:10:00,50.9,48.4,30.18,NNE,22,1.0,1.0,91,0.00,,,0.03,Weather View 32 v70,2013-09-05 20:10:00,
2013-09-05 12:15:00,52.0,49.1,30.18,NNE,22,0.0,1.0,90,0.00,,,0.03,Weather View 32 v70,2013-09-05 20:15:00,
2013-09-05 12:20:00,52.3,49.2,30.18,NNW,338,0.0,1.0,89,0.00,,,0.03,Weather View 32 v70,2013-09-05 20:20:00,
2013-09-05 12:25:00,53.4,50.3,30.18,NNE,22,0.0,1.0,89,0.00,,,0.03,Weather View 32 v70,2013-09-05 20:25:00,
2013-09-05 12:30:00,53.8,50.0,30.18,NNE,22,0.0,1.0,87,0.00,,,0.03,Weather View 32 v70,2013-09-05 20:30:00,
2013-09-05 12:35:00,54.5,50.4,30.18,North,0,0.0,1.0,86,0.00,,,0.03,Weather View 32 v70,2013-09-05 20:35:00,
2013-09-05 12:40:00,54.9,50.4,30.18,West,270,0.0,1.0,85,0.00,,,0.03,Weather View 32 v70,2013-09-05 20:40:00,
2013-09-05 12:45:00,55.0,50.0,30.16,North,0,0.0,1.0,83,0.00,,,0.03,Weather View 32 v70,2013-09-05 20:45:00,
2013-09-05 12:50:00,55.6,50.2,30.16,NNE,22,1.0,1.0,82,0.00,,,0.03,Weather View 32 v70,2013-09-05 20:50:00,
2013-09-05 12:55:00,55.9,50.2,30.16,NNW,338,1.0,1.0,81,0.00,,,0.03,Weather View 32 v70,2013-09-05 20:55:00,
2013-09-05 13:00:00,56.3,50.2,30.16,NNE,22,1.0,1.0,80,0.00,,,0.03,Weather View 32 v70,2013-09-05 21:00:00,
2013-09-05 13:05:00,57.4,50.9,30.15,NNE,22,1.0,1.0,79,0.00,,,0.03,Weather View 32 v70,2013-09-05 21:05:00,
2013-09-05 13:10:00,58.8,52.0,30.15,NNE,22,0.0,1.0,78,0.00,,,0.03,Weather View 32 v70,2013-09-05 21:10:00,
2013-09-05 13:15:00,59.5,50.9,30.15,NNE,22,0.0,1.0,73,0.00,,,0.03,Weather View 32 v70,2013-09-05 21:15:00,
2013-09-05 13:20:00,60.3,51.9,30.15,SSW,202,1.0,1.0,74,0.00,,,0.03,Weather View 32 v70,2013-09-05 21:20:00,
2013-09-05 13:25:00,62.8,50.4,30.14,NNE,22,1.0,1.0,64,0.00,,,0.03,Weather View 32 v70,2013-09-05 21:25:00,
2013-09-05 13:30:00,63.0,49.7,30.14,ENE,68,1.0,1.0,62,0.00,,,0.03,Weather View 32 v70,2013-09-05 21:30:00,
2013-09-05 13:35:00,64.9,48.3,30.14,South,180,2.0,2.0,55,0.00,,,0.03,Weather View 32 v70,2013-09-05 21:35:00,
2013-09-05 13:40:00,67.8,49.5,30.14,SE,135,2.0,2.0,52,0.00,,,0.03,Weather View 32 v70,2013-09-05 21:40:00,
2013-09-05 13:45:00,64.4,47.8,30.11,ESE,112,2.0,3.0,55,0.00,,,0.03,Weather View 32 v70,2013-09-05 21:45:00,
2013-09-05 13:50:00,63.9,47.3,30.11,SE,135,3.0,3.0,55,0.00,,,0.03,Weather View 32 v70,2013-09-05 21:50:00,
2013-09-05 13:55:00,64.2,47.7,30.11,SE,135,2.0,3.0,55,0.00,,,0.03,Weather View 32 v70,2013-09-05 21:55:00,
2013-09-05 14:00:00,65.7,47.5,30.11,East,90,2.0,3.0,52,0.00,,,0.03,Weather View 32 v70,2013-09-05 22:00:00,
2013-09-05 14:05:00,65.5,45.8,30.12,NNE,22,3.0,3.0,49,0.00,,,0.03,Weather View 32 v70,2013-09-05 22:05:00,
2013-09-05 14:10:00,64.2,45.7,30.12,NNE,22,3.0,3.0,51,0.00,,,0.03,Weather View 32 v70,2013-09-05 22:10:00,
2013-09-05 14:15:00,62.4,45.0,30.12,North,0,3.0,3.0,53,0.00,,,0.03,Weather View 32 v70,2013-09-05 22:15:00,
2013-09-05 14:20:00,62.1,45.2,30.12,NNE,22,3.0,3.0,54,0.00,,,0.03,Weather View 32 v70,2013-09-05 22:20:00,
2013-09-05 14:25:00,61.3,45.0,30.13,SE,135,3.0,3.0,55,0.00,,,0.03,Weather View 32 v70,2013-09-05 22:25:00,
2013-09-05 14:30:00,61.3,45.5,30.13,SE,135,2.0,3.0,56,0.00,,,0.03,Weather View 32 v70,2013-09-05 22:30:00,
2013-09-05 14:35:00,61.7,45.8,30.13,SE,135,2.0,3.0,56,0.00,,,0.03,Weather View 32 v70,2013-09-05 22:35:00,
2013-09-05 14:40:00,61.3,45.0,30.13,SE,135,2.0,3.0,55,0.00,,,0.03,Weather View 32 v70,2013-09-05 22:40:00,
2013-09-05 14:45:00,61.7,45.8,30.13,ENE,68,2.0,3.0,56,0.00,,,0.03,Weather View 32 v70,2013-09-05 22:45:00,
2013-09-05 14:50:00,62.1,46.1,30.13,NNE,22,2.0,3.0,56,0.00,,,0.03,Weather View 32 v70,2013-09-05 22:50:00,
2013-09-05 14:55:00,62.2,45.8,30.13,ESE,112,2.0,3.0,55,0.00,,,0.03,Weather View 32 v70,2013-09-05 22:55:00,
2013-09-05 15:00:00,62.1,45.2,30.13,ESE,112,2.0,3.0,54,0.00,,,0.03,Weather View 32 v70,2013-09-05 23:00:00,
2013-09-05 15:05:00,61.3,45.5,30.13,NE,45,2.0,3.0,56,0.00,,,0.03,Weather View 32 v70,2013-09-05 23:05:00,
2013-09-05 15:10:00,60.8,45.4,30.13,SE,135,2.0,3.0,57,0.00,,,0.03,Weather View 32 v70,2013-09-05 23:10:00,
2013-09-05 15:15:00,60.3,45.8,30.13,ESE,112,2.0,3.0,59,0.00,,,0.03,Weather View 32 v70,2013-09-05 23:15:00,
2013-09-05 15:20:00,59.9,45.5,30.13,ENE,68,2.0,3.0,59,0.00,,,0.03,Weather View 32 v70,2013-09-05 23:20:00,
2013-09-05 15:25:00,59.5,45.6,30.13,ESE,112,2.0,3.0,60,0.00,,,0.03,Weather View 32 v70,2013-09-05 23:25:00,
2013-09-05 15:30:00,59.5,45.6,30.13,NW,315,2.0,2.0,60,0.00,,,0.03,Weather View 32 v70,2013-09-05 23:30:00,
2013-09-05 15:35:00,59.0,46.0,30.13,ESE,112,2.0,2.0,62,0.00,,,0.03,Weather View 32 v70,2013-09-05 23:35:00,
2013-09-05 15:40:00,59.2,46.1,30.13,NE,45,2.0,2.0,62,0.00,,,0.03,Weather View 32 v70,2013-09-05 23:40:00,
2013-09-05 15:45:00,58.6,45.2,30.13,ENE,68,2.0,2.0,61,0.00,,,0.03,Weather View 32 v70,2013-09-05 23:45:00,
2013-09-05 15:50:00,58.5,45.0,30.13,NNW,338,2.0,2.0,61,0.00,,,0.03,Weather View 32 v70,2013-09-05 23:50:00,
2013-09-05 15:55:00,57.9,44.9,30.13,ENE,68,3.0,3.0,62,0.00,,,0.03,Weather View 32 v70,2013-09-05 23:55:00,
2013-09-05 16:00:00,57.7,45.2,30.13,ENE,68,2.0,3.0,63,0.00,,,0.03,Weather View 32 v70,2013-09-06 00:00:00,
2013-09-05 16:05:00,57.7,45.2,30.13,SSE,158,2.0,3.0,63,0.00,,,0.03,Weather View 32 v70,2013-09-06 00:05:00,
2013-09-05 16:10:00,57.4,44.9,30.13,SE,135,2.0,3.0,63,0.00,,,0.03,Weather View 32 v70,2013-09-06 00:10:00,
2013-09-05 16:15:00,57.2,45.1,30.13,NE,45,1.0,3.0,64,0.00,,,0.03,Weather View 32 v70,2013-09-06 00:15:00,
2013-09-05 16:20:00,57.2,45.1,30.13,North,0,1.0,3.0,64,0.00,,,0.03,Weather View 32 v70,2013-09-06 00:20:00,
2013-09-05 16:25:00,57.0,44.9,30.13,ESE,112,2.0,3.0,64,0.00,,,0.03,Weather View 32 v70,2013-09-06 00:25:00,
2013-09-05 16:30:00,57.0,45.3,30.13,NE,45,2.0,3.0,65,0.00,,,0.03,Weather View 32 v70,2013-09-06 00:30:00,
2013-09-05 16:35:00,56.8,45.2,30.13,NW,315,2.0,3.0,65,0.00,,,0.03,Weather View 32 v70,2013-09-06 00:35:00,
2013-09-05 16:40:00,56.5,44.8,30.13,WNW,292,2.0,3.0,65,0.00,,,0.03,Weather View 32 v70,2013-09-06 00:40:00,
2013-09-05 16:45:00,56.5,45.2,30.13,ESE,112,1.0,3.0,66,0.00,,,0.03,Weather View 32 v70,2013-09-06 00:45:00,
2013-09-05 16:50:00,56.3,45.1,30.13,SE,135,1.0,3.0,66,0.00,,,0.03,Weather View 32 v70,2013-09-06 00:50:00,
2013-09-05 16:55:00,56.3,45.5,30.13,North,0,1.0,3.0,67,0.00,,,0.03,Weather View 32 v70,2013-09-06 00:55:00,
2013-09-05 17:00:00,56.3,45.5,30.13,ESE,112,1.0,2.0,67,0.00,,,0.03,Weather View 32 v70,2013-09-06 01:00:00,
2013-09-05 17:05:00,55.9,45.1,30.13,South,180,1.0,2.0,67,0.00,,,0.03,Weather View 32 v70,2013-09-06 01:05:00,
2013-09-05 17:10:00,55.9,45.5,30.13,WSW,248,1.0,2.0,68,0.00,,,0.03,Weather View 32 v70,2013-09-06 01:10:00,
2013-09-05 17:15:00,55.9,45.9,30.13,WSW,248,0.0,2.0,69,0.00,,,0.03,Weather View 32 v70,2013-09-06 01:15:00,
2013-09-05 17:20:00,55.9,46.7,30.13,WSW,248,0.0,2.0,71,0.00,,,0.03,Weather View 32 v70,2013-09-06 01:20:00,
2013-09-05 17:25:00,55.8,46.5,30.13,West,270,0.0,2.0,71,0.00,,,0.03,Weather View 32 v70,2013-09-06 01:25:00,
2013-09-05 17:30:00,56.1,47.2,30.13,WNW,292,1.0,2.0,72,0.00,,,0.03,Weather View 32 v70,2013-09-06 01:30:00,
2013-09-05 17:35:00,56.1,47.6,30.13,NNW,338,1.0,2.0,73,0.00,,,0.03,Weather View 32 v70,2013-09-06 01:35:00,
2013-09-05 17:40:00,56.5,48.3,30.13,NW,315,1.0,2.0,74,0.00,,,0.03,Weather View 32 v70,2013-09-06 01:40:00,
2013-09-05 17:45:00,56.5,48.3,30.14,WNW,292,1.0,2.0,74,0.00,,,0.03,Weather View 32 v70,2013-09-06 01:45:00,
2013-09-05 17:50:00,56.5,48.3,30.14,NW,315,1.0,1.0,74,0.00,,,0.03,Weather View 32 v70,2013-09-06 01:50:00,
2013-09-05 17:55:00,56.7,48.4,30.14,WNW,292,2.0,2.0,74,0.00,,,0.03,Weather View 32 v70,2013-09-06 01:55:00,
2013-09-05 18:00:00,56.7,48.8,30.14,SW,225,1.0,2.0,75,0.00,,,0.03,Weather View 32 v70,2013-09-06 02:00:00,
2013-09-05 18:05:00,57.0,48.8,30.14,WSW,248,1.0,2.0,74,0.00,,,0.03,Weather View 32 v70,2013-09-06 02:05:00,
2013-09-05 18:10:00,56.8,48.6,30.14,NW,315,1.0,2.0,74,0.00,,,0.03,Weather View 32 v70,2013-09-06 02:10:00,
2013-09-05 18:15:00,56.7,48.8,30.14,NNW,338,1.0,2.0,75,-0.03,,,0.03,Weather View 32 v70,2013-09-06 02:15:00,
2013-09-05 18:20:00,56.1,48.3,30.14,NW,315,1.0,2.0,75,0.00,,,0.03,Weather View 32 v70,2013-09-06 02:20:00,
2013-09-05 18:25:00,55.9,48.1,30.13,West,270,2.0,2.0,75,0.00,,,0.03,Weather View 32 v70,2013-09-06 02:25:00,
2013-09-05 18:30:00,55.8,47.9,30.13,WSW,248,2.0,2.0,75,0.00,,,0.03,Weather View 32 v70,2013-09-06 02:30:00,
2013-09-05 18:35:00,55.6,47.8,30.13,NW,315,2.0,2.0,75,0.00,,,0.03,Weather View 32 v70,2013-09-06 02:35:00,
2013-09-05 18:40:00,55.6,48.1,30.13,WSW,248,3.0,3.0,76,0.00,,,0.03,Weather View 32 v70,2013-09-06 02:40:00,
2013-09-05 18:45:00,55.6,48.1,30.14,West,270,3.0,3.0,76,0.00,,,0.03,Weather View 32 v70,2013-09-06 02:45:00,
2013-09-05 18:50:00,55.2,47.8,30.14,West,270,2.0,3.0,76,0.00,,,0.03,Weather View 32 v70,2013-09-06 02:50:00,
2013-09-05 18:55:00,55.2,47.8,30.14,West,270,2.0,3.0,76,0.00,,,0.03,Weather View 32 v70,2013-09-06 02:55:00,
2013-09-05 19:00:00,55.0,47.2,30.14,West,270,2.0,3.0,75,0.00,,,0.03,Weather View 32 v70,2013-09-06 03:00:00,
2013-09-05 19:05:00,55.0,47.6,30.13,WNW,292,2.0,3.0,76,0.00,,,0.03,Weather View 32 v70,2013-09-06 03:05:00,
2013-09-05 19:10:00,55.0,47.6,30.13,NW,315,2.0,3.0,76,0.00,,,0.03,Weather View 32 v70,2013-09-06 03:10:00,
2013-09-05 19:15:00,54.9,47.8,30.13,West,270,2.0,3.0,77,0.00,,,0.03,Weather View 32 v70,2013-09-06 03:15:00,
2013-09-05 19:20:00,54.9,47.8,30.13,West,270,1.0,3.0,77,0.00,,,0.03,Weather View 32 v70,2013-09-06 03:20:00,
2013-09-05 19:25:00,55.0,47.9,30.13,West,270,1.0,3.0,77,0.00,,,0.03,Weather View 32 v70,2013-09-06 03:25:00,
2013-09-05 19:30:00,54.7,47.6,30.13,West,270,1.0,3.0,77,0.00,,,0.03,Weather View 32 v70,2013-09-06 03:30:00,
2013-09-05 19:35:00,54.9,47.8,30.13,West,270,1.0,3.0,77,0.00,,,0.03,Weather View 32 v70,2013-09-06 03:35:00,
2013-09-05 19:40:00,54.9,47.8,30.13,WNW,292,1.0,3.0,77,0.00,,,0.03,Weather View 32 v70,2013-09-06 03:40:00,
2013-09-05 19:45:00,54.7,47.6,30.13,West,270,1.0,3.0,77,0.00,,,0.03,Weather View 32 v70,2013-09-06 03:45:00,
2013-09-05 19:50:00,54.5,47.4,30.13,NW,315,1.0,2.0,77,0.00,,,0.03,Weather View 32 v70,2013-09-06 03:50:00,
2013-09-05 19:55:00,54.3,47.6,30.13,NW,315,1.0,2.0,78,0.00,,,0.03,Weather View 32 v70,2013-09-06 03:55:00,
2013-09-05 20:00:00,54.5,48.1,30.13,North,0,0.0,2.0,79,0.00,,,0.03,Weather View 32 v70,2013-09-06 04:00:00,
2013-09-05 20:01:00,54.5,48.1,30.13,North,0,0.0,2.0,79,0.00,,,0.03,Weather View 32 v70,2013-09-06 04:01:00,
2013-09-05 20:02:00,54.5,48.1,30.13,WNW,292,0.0,2.0,79,0.00,,,0.03,Weather View 32 v70,2013-09-06 04:02:00,
2013-09-05 20:07:00,54.3,47.9,30.13,North,0,1.0,2.0,79,0.00,,,0.03,Weather View 32 v70,2013-09-06 04:07:00,
2013-09-05 20:12:00,54.1,47.8,30.13,NNE,22,1.0,2.0,79,0.00,,,0.03,Weather View 32 v70,2013-09-06 04:12:00,
2013-09-05 20:17:00,53.8,47.7,30.13,West,270,1.0,2.0,80,0.00,,,0.03,Weather View 32 v70,2013-09-06 04:17:00,
2013-09-05 20:22:00,53.8,47.4,30.13,ENE,68,1.0,1.0,79,0.00,,,0.03,Weather View 32 v70,2013-09-06 04:22:00,
2013-09-05 20:27:00,53.6,47.6,30.14,NNE,22,2.0,2.0,80,0.00,,,0.03,Weather View 32 v70,2013-09-06 04:27:00,
2013-09-05 20:32:00,53.6,47.6,30.14,NNE,22,2.0,2.0,80,0.00,,,0.03,Weather View 32 v70,2013-09-06 04:32:00,
2013-09-05 20:37:00,53.4,47.4,30.14,WSW,248,1.0,2.0,80,0.00,,,0.03,Weather View 32 v70,2013-09-06 04:37:00,
2013-09-05 20:42:00,53.1,47.0,30.14,NNE,22,1.0,2.0,80,0.00,,,0.03,Weather View 32 v70,2013-09-06 04:42:00,
2013-09-05 20:47:00,53.1,47.0,30.15,NW,315,1.0,2.0,80,0.00,,,0.03,Weather View 32 v70,2013-09-06 04:47:00,
2013-09-05 20:52:00,52.9,47.2,30.15,NW,315,1.0,2.0,81,0.00,,,0.03,Weather View 32 v70,2013-09-06 04:52:00,
2013-09-05 20:57:00,52.7,47.0,30.15,SE,135,1.0,2.0,81,0.00,,,0.03,Weather View 32 v70,2013-09-06 04:57:00,
2013-09-05 21:02:00,52.3,47.3,30.15,SE,135,1.0,2.0,83,0.00,,,0.03,Weather View 32 v70,2013-09-06 05:02:00,
2013-09-05 21:07:00,52.2,47.5,30.13,SSE,158,0.0,2.0,84,0.00,,,0.03,Weather View 32 v70,2013-09-06 05:07:00,
2013-09-05 21:12:00,51.8,47.1,30.13,SSW,202,0.0,2.0,84,0.00,,,0.03,Weather View 32 v70,2013-09-06 05:12:00,
2013-09-05 21:17:00,51.6,47.2,30.13,SW,225,0.0,2.0,85,0.00,,,0.03,Weather View 32 v70,2013-09-06 05:17:00,
2013-09-05 21:22:00,51.6,46.9,30.13,NNW,338,0.0,2.0,84,0.00,,,0.03,Weather View 32 v70,2013-09-06 05:22:00,
2013-09-05 21:27:00,51.4,46.8,30.11,SE,135,0.0,2.0,84,0.00,,,0.03,Weather View 32 v70,2013-09-06 05:27:00,
2013-09-05 21:32:00,51.4,47.1,30.11,SE,135,0.0,2.0,85,0.00,,,0.03,Weather View 32 v70,2013-09-06 05:32:00,
2013-09-05 21:37:00,51.3,46.9,30.11,East,90,0.0,2.0,85,0.00,,,0.03,Weather View 32 v70,2013-09-06 05:37:00,
2013-09-05 21:42:00,51.3,46.9,30.11,North,0,1.0,1.0,85,0.00,,,0.03,Weather View 32 v70,2013-09-06 05:42:00,
2013-09-05 21:47:00,51.3,46.9,30.11,NE,45,1.0,1.0,85,0.00,,,0.03,Weather View 32 v70,2013-09-06 05:47:00,
2013-09-05 21:52:00,51.1,46.7,30.11,NE,45,1.0,1.0,85,0.00,,,0.03,Weather View 32 v70,2013-09-06 05:52:00,